Flag for Germany Weather past 2 weeks in Bielefeld, North Rhine-Westphalia, Germany

Now
41 °F

Drizzle. Overcast.


Feels Like: 38 °F
Forecast: 40 / 45 °F
Wind: 5 mph from Southwest

Location: Bad Lippspringe

Current Time: Mar 27, 2015 at 12:51:06 AM

Latest Report: Mar 27, 2015 at 12:00 AM


Visibility: 44 mi

Pressure: 29.77 "Hg

Humidity: 85%

Dew point: 36 °F

Location of BielefeldLocation

Historic Weather in Bielefeld — Graph

°F

Bielefeld temperature yesterday

Maximum temperature yesterday: 47 °F (at 5:00 PM)
Minimum temperature yesterday: 39 °F (at 7:00 AM)
Average temperature yesterday: 42 °F

Past Weeks' High & Low Weather Summary

 TemperatureHumidityPressure
High63 °F (Mar 25, 3:00 PM)100% (Mar 19, 8:00 AM)30.52 "Hg (Mar 19, 8:00 AM)
Low27 °F (Mar 23, 5:00 AM)42% (Mar 17, 3:00 PM)29.63 "Hg (Mar 25, 3:00 PM)
Average42 °F79%30.18 "Hg
* Reported Mar 11 11:00 PM — Mar 26 11:00 PM, Bielefeld, Weather by CustomWeather, © 2015

Note: Actual official high and low records may vary slightly from our data, if they occured in-between our weather recording intervals... More about our weather records

Advertising

Bielefeld weather history for previous 24 hours

 ConditionsComfort  
Time TempWeatherWind HumidityBarometerVisibility
11:00 PM
Thu, Mar 26
41 °FDrizzle. Overcast.3 mph83%29.76 "Hg43 mi
10:00 PM41 °FLight rain. Overcast.3 mph81%29.76 "Hg43 mi
9:00 PM40 °FLight rain. Overcast.2 mph95%29.77 "HgN/A
8:00 PM40 °FDrizzle. Overcast.2 mph92%29.78 "HgN/A
7:00 PM41 °FLight rain. Overcast.6 mph78%29.77 "Hg7 mi
6:00 PM47 °FOvercast.3 mph56%29.73 "Hg11 mi
5:00 PM47 °FOvercast.2 mph59%29.72 "Hg7 mi
4:00 PM46 °FPartly sunny.1 mph67%29.74 "Hg5 mi
3:00 PM44 °FOvercast.2 mph73%29.75 "Hg5 mi
2:00 PM43 °FOvercast.3 mph75%29.77 "Hg4 mi
1:00 PM42 °FOvercast.5 mph78%29.78 "Hg3 mi
12:00 PM42 °FOvercast.5 mph78%29.79 "Hg4 mi
11:00 AM42 °FOvercast.3 mph76%29.79 "Hg7 mi
10:00 AM42 °FOvercast.3 mph80%29.80 "Hg8 mi
9:00 AM40 °FOvercast.3 mph85%29.80 "Hg8 mi
8:00 AM39 °FOvercast.3 mph87%29.80 "Hg8 mi
7:00 AM39 °FOvercast.3 mph85%29.79 "Hg8 mi
6:00 AM39 °FOvercast.3 mph83%29.78 "Hg43 mi
5:00 AM40 °FOvercast.3 mph86%29.77 "Hg25 mi
4:00 AM40 °FLow clouds.3 mph89%29.75 "HgN/A
3:00 AM41 °FLight freezing rain. Overcast.5 mph89%29.75 "Hg17 mi
2:00 AM41 °FOvercast.5 mph87%29.75 "Hg15 mi
1:00 AM42 °FOvercast.3 mph85%29.75 "Hg5 mi
12:00 AM43 °FOvercast.5 mph85%29.75 "Hg16 mi
Weather by CustomWeather, © 2015

See weather overviewHow to use our weather pages